STARLINK-36533, 67643

Orbit data source: Space-Track

STARLINK-36533, 67643 is a payload satellite owned by SpaceX/Seattle (US) in LEO that was launched on Fri, 30 Jan 2026 UTC via an FALCON 9 launch vehicle from the Air Force Eastern Test Range (AFETR). Payload-class satellites include a variety of spacecraft equipped with specific instruments for various scientific and technological missions. These include communications satellites like Starlink; space stations such as the ISS; scientific satellites like the Hubble; Earth observation satellites from companies like Planet Labs, Umbra, and HawkEye 360; GPS; miniature CubeSats for education and research; and military/defense satellites.

Loading next visibility...
Identifier
67643, 2026-020AC
Orbit
LEO
Country
Flag of USUS
Related business
Manufacturer
SpaceX/Seattle
Mission
Operational Commercial Communications
Bus & Motor
STARLINK V2MO, Unknown motor
Mass
575 kg wet, ~530 kg dry
Launch date (UTC)
2026-01-30 (3 months ago)
Launch vehicle
FALCON 9
Launch site
Air Force Eastern Test Range (AFETR)
Object type
Payload
Rocket body
Debris
Shape & HBR
Box + 2 Pan, 17.7 m
Radar Cross Section
36.964 m²

Expand to show TLE details & history
Last TLE update: 9 hours ago

TLE from 9 hours ago
0 STARLINK-36533
1 67643U 26020AC  26112.09464237  .00021095  00000-0  77496-3 0  9996
2 67643  42.9967 254.4916 0001440 272.4420  87.6267 15.27535414 12754
Epoch: 2026-04-22T02:16Z
TLE epoch observation values (Epoch: 2026-04-22T02:16:17.100Z)
Latitude
-0.00001°
Longitude
10.25934°
Altitude
482.917 km
Speed
7.626 km/s
True Right ascension
16h 57m 57s
True Declination
0° 00' 00"
Sunlit
Object was in full shadow at epoch
Visualization orbit readout
Latitude
Unknown
Longitude
Unknown
Altitude
Unknown
Speed
Unknown
Apparent Right ascension
Unknown
Apparent Declination
Unknown
Sunlit
N/A
Visualization observer readout
Local Sidereal Time
18:23:14
Azimuth
Unknown
Elevation
Unknown
Doppler factor
Unknown
Orbital elements
Apogee altitude
486.117 km
Perigee altitude
484.14 km
Semi-major axis
6,863.265 km
Eccentricity
0.00014
Inclination
42.9967°
RAAN
254.4916°
Arg. of periapsis
272.442°
True anomaly
87.64319°
Mean anomaly
87.6267°
Eccentric anomaly
87.63494°
Mean motion
3.81722 °/min
Orbital period
94.31 mins
BSTAR
0.00077496
Loading maneuver chart data...
Computing Atmospheric mass density...
Loading historical data...
Loading historical data...
Loading historical data...
Loading historical data...
Loading historical data...
Loading historical data...
Loading historical data...

Documentation

Showing up to 5 results
|